Location: Observatoire de l'Aigle
(47.0607°N, 71.3152°W)
Time: 00:50:40
(UTC-04:00)

Amateur Radio Satellites - All Passes

Search period start: 26 April 2015 00:20
Search period end: 27 April 2015 00:20
Location: Observatoire de l'Aigle, 47.0607°N, 71.3152°W

Satellite Date Start Highest point End Downlink Frequencies (MHz)
Time Altitude Azimuth
YUBILEINY 26 Apr 00:29:29 00:34:47 17° 285° (WNW) 00:39:36 435.215
NANOSAT C BR1 26 Apr 00:30:56 00:35:05 50° 289° (WNW) 00:39:14 145.865
TIGRISAT 26 Apr 00:31:20 00:35:29 30° 294° (WNW) 00:39:32 435.000
POPSAT HIP 1 26 Apr 00:34:12 00:38:21 46° 289° (WNW) 00:42:28 437.405
UNISAT 6 26 Apr 00:35:49 00:39:49 27° 295° (WNW) 00:43:43 437.425
SPROUT 26 Apr 00:39:00 00:43:04 41° 262° (W) 00:47:09 437.525
BEESAT 26 Apr 00:47:16 00:51:37 37° 67° (ENE) 00:56:02 436.000
Oscar 19 26 Apr 00:48:27 00:49:33 11° 83° (E) 00:50:59 437.125/150
SWISSCUBE 26 Apr 00:49:41 00:54:09 41° 69° (ENE) 00:58:40 437.505
BUGSAT 1 26 Apr 00:58:15 01:02:04 36° 291° (WNW) 01:05:53 437.445
GONETS M04 26 Apr 01:00:02 01:01:07 10° 41° (NE) 01:02:47
Cosmos 2504 26 Apr 01:00:47 01:08:58 82° 263° (W) 01:16:31 435.465 / 435.565
POLYITAN 1 26 Apr 01:04:32 01:08:04 24° 294° (WNW) 01:11:32 437.675
DUCHIFAT 1 26 Apr 01:05:21 01:08:51 24° 294° (WNW) 01:12:18 145.980
ANTELSAT 26 Apr 01:19:25 01:21:31 13° 302° (WNW) 01:23:25 437.575/2403.000
QB50P1 26 Apr 01:23:30 01:26:21 17° 298° (WNW) 01:29:04 145.935-145.965
AIST 1 26 Apr 01:33:33 01:37:37 40° 286° (WNW) 01:41:40
STARS 26 Apr 01:35:44 01:38:10 15° 60° (ENE) 01:40:46 437.465
RS-15 26 Apr 01:45:04 01:53:57 25° 257° (WSW) 02:02:34 29.354- 29.394
TISAT 1 26 Apr 01:46:50 01:48:15 11° 274° (W) 01:49:26 437.305
Gurwin Techsat 1B 26 Apr 01:53:38 01:55:41 12° 84° (E) 01:58:02 435.225
ITUPSAT 1 26 Apr 01:53:54 01:58:37 57° 259° (W) 02:03:22 437.325
KKS-1 26 Apr 02:15:51 02:20:09 52° 71° (ENE) 02:24:30 437.445
Oscar 19 26 Apr 02:24:40 02:29:55 78° 103° (ESE) 02:35:07 437.125/150
BEESAT 26 Apr 02:25:21 02:29:33 29° 266° (W) 02:33:42 436.000
CUSAT 1 26 Apr 02:27:00 02:32:25 22° 60° (ENE) 02:38:38 437.405
Cosmos 2491 26 Apr 02:27:46 02:28:51 10° 319° (NW) 02:29:22 435.465 / 435.565
SWISSCUBE 26 Apr 02:28:10 02:32:12 26° 267° (W) 02:36:08 437.505
AIST 2 26 Apr 02:36:05 02:36:45 10° 109° (ESE) 02:37:39 435.215
MOZHAYETS 4 26 Apr 02:48:38 02:49:16 10° 57° (ENE) 02:50:07
GONETS M04 26 Apr 02:52:54 03:01:14 44° 69° (ENE) 03:09:36
Cosmos 2504 26 Apr 02:56:11 03:01:05 17° 284° (WNW) 03:05:25 435.465 / 435.565
ITAMSAT 1 26 Apr 02:59:56 03:05:00 52° 100° (E) 03:10:04 435.822/435.867
BEESAT 3 26 Apr 03:06:28 03:10:32 69° 124° (SE) 03:14:40 437.485
DANDE 26 Apr 03:07:29 03:13:43 32° 66° (ENE) 03:21:02 436.750
BEESAT 2 26 Apr 03:08:13 03:12:16 60° 123° (ESE) 03:16:24 435.950
STARS 26 Apr 03:09:45 03:14:08 71° 258° (WSW) 03:18:34 437.465
AO-7 26 Apr 03:12:10 03:16:22 15° 83° (E) 03:21:05 29.400- 29.500
Cosmos 2499 26 Apr 03:29:57 03:33:20 13° 48° (NE) 03:37:01 435.465 / 435.565
Gurwin Techsat 1B 26 Apr 03:31:14 03:36:35 85° 101° (ESE) 03:41:55 435.225
JAS-2 26 Apr 03:51:10 03:56:13 25° 87° (E) 04:00:58 435.910
KKS-1 26 Apr 03:54:00 03:57:09 18° 270° (W) 04:00:11 437.445
Oscar 19 26 Apr 04:05:14 04:08:43 18° 301° (WNW) 04:12:02 437.125/150
CUSAT 1 26 Apr 04:08:40 04:16:08 84° 78° (ENE) 04:24:32 437.405
AIST 2 26 Apr 04:10:25 04:14:41 83° 126° (SE) 04:19:01 435.215
MOZHAYETS 4 26 Apr 04:21:06 04:25:43 70° 73° (ENE) 04:30:22
AUBIESAT-1 26 Apr 04:23:46 04:26:37 16° 54° (NE) 04:29:36 437.475
HORYU 2 26 Apr 04:25:14 04:29:44 64° 102° (ESE) 04:34:11 437.375
ITAMSAT 1 26 Apr 04:40:03 04:44:14 25° 298° (WNW) 04:48:19 435.822/435.867
BEESAT 3 26 Apr 04:45:49 04:48:59 20° 325° (NW) 04:52:07 437.485
BEESAT 2 26 Apr 04:47:25 04:50:45 22° 323° (NW) 04:54:03 435.950
GONETS M04 26 Apr 04:49:51 04:58:18 49° 271° (W) 05:06:35
DANDE 26 Apr 04:50:12 04:57:26 68° 263° (W) 05:05:51 436.750
AO-7 26 Apr 05:02:35 05:10:55 71° 105° (ESE) 05:19:15 29.400- 29.500
Gurwin Techsat 1B 26 Apr 05:12:36 05:15:57 17° 302° (WNW) 05:19:08 435.225
M-CUBED/EXP-1 PRIME 26 Apr 05:14:15 05:18:50 45° 64° (ENE) 05:23:26 437.505
Cosmos 2499 26 Apr 05:20:59 05:28:48 59° 74° (ENE) 05:36:02 435.465 / 435.565
JAS-2 26 Apr 05:35:32 05:41:58 59° 291° (WNW) 05:47:37 435.910
AIST 2 26 Apr 05:50:40 05:53:50 19° 326° (NNW) 05:56:57 435.215
CUSAT 1 26 Apr 05:52:28 05:58:23 24° 274° (W) 06:04:28 437.405
CUTE-I 26 Apr 05:53:31 05:56:34 16° 87° (E) 05:59:52 437.470
AUBIESAT-1 26 Apr 05:56:01 06:00:50 86° 254° (WSW) 06:05:39 437.475
CUBESAT XI-V 26 Apr 05:58:45 06:03:18 59° 73° (ENE) 06:07:52 437.345
MOZHAYETS 4 26 Apr 06:00:52 06:03:31 15° 273° (W) 06:05:59
Cubesat XI-IV 26 Apr 06:02:49 06:06:31 19° 89° (E) 06:10:22 437.490
HORYU 2 26 Apr 06:03:00 06:05:57 17° 299° (WNW) 06:08:45 437.375
STRAND 1 26 Apr 06:14:49 06:19:40 47° 69° (ENE) 06:24:35 437.568
PRISM 26 Apr 06:20:57 06:25:05 65° 73° (ENE) 06:29:13 437.425
DANDE 26 Apr 06:35:39 06:39:57 16° 278° (W) 06:44:06 436.750
M-CUBED/EXP-1 PRIME 26 Apr 06:49:44 06:53:50 26° 262° (W) 06:57:52 437.505
AO-7 26 Apr 06:56:01 07:03:13 33° 306° (NW) 07:10:16 29.400- 29.500
O/OREOS (USA 219) 26 Apr 07:06:34 07:10:34 30° 54° (NE) 07:14:33 437.305
Cosmos 2499 26 Apr 07:14:51 07:21:28 30° 277° (W) 07:27:32 435.465 / 435.565
JAS-2 26 Apr 07:22:49 07:25:39 13° 313° (NW) 07:28:06 435.910
CUTE-I 26 Apr 07:32:02 07:37:22 78° 288° (WNW) 07:42:42 437.470
AUBIESAT-1 26 Apr 07:34:19 07:36:19 12° 269° (W) 07:38:04 437.475
PCSat 26 Apr 07:34:47 07:38:56 23° 109° (ESE) 07:43:13 145.827
CUBESAT XI-V 26 Apr 07:38:07 07:41:12 17° 271° (W) 07:44:07 437.345
Cubesat XI-IV 26 Apr 07:41:53 07:47:09 65° 289° (WNW) 07:52:25 437.490
STRAND 1 26 Apr 07:54:54 07:59:08 25° 268° (W) 08:03:17 437.568
PRISM 26 Apr 07:59:00 08:01:03 13° 272° (W) 08:02:55 437.425
HO-68 26 Apr 08:12:10 08:16:52 19° 86° (E) 08:21:52 435.675
Cosmos 2491 26 Apr 08:29:45 08:37:08 29° 61° (ENE) 08:44:42 435.465 / 435.565
O/OREOS (USA 219) 26 Apr 08:45:56 08:50:02 34° 253° (WSW) 08:54:02 437.305
GOMX 1 26 Apr 08:46:39 08:51:21 36° 95° (E) 08:56:20 467.674
AO-7 26 Apr 08:52:44 08:53:33 10° 330° (NNW) 08:54:01 29.400- 29.500
COMPASS 1 26 Apr 08:59:04 09:02:13 21° 91° (E) 09:05:27 437.405
BRITE-PL 26 Apr 09:01:41 09:06:43 71° 101° (E) 09:12:10 437.365/2234.400
ANTELSAT 26 Apr 09:07:45 09:10:39 17° 61° (ENE) 09:13:43 437.575/2403.000
CUTE-I 26 Apr 09:13:58 09:16:42 14° 305° (NW) 09:19:13 437.470
PCSat 26 Apr 09:16:36 09:21:59 62° 308° (NW) 09:27:23 145.827
Oscar 11 26 Apr 09:18:06 09:20:24 14° 88° (E) 09:22:53 145.826/435.025
DOVE 4 26 Apr 09:20:27 09:25:25 51° 98° (E) 09:30:34 437.250
Cubesat XI-IV 26 Apr 09:24:28 09:26:22 12° 307° (NW) 09:28:01 437.490
SEEDS 26 Apr 09:24:50 09:28:57 46° 99° (E) 09:33:01 437.485
CANX-2 26 Apr 09:34:07 09:38:27 77° 101° (ESE) 09:42:43 2200.000
QB50P2 26 Apr 09:34:56 09:37:14 15° 61° (ENE) 09:39:42 145.880/145.840
YUBILEINY 26 Apr 09:40:22 09:47:13 27° 81° (E) 09:54:19 435.215
AAUSAT CUBESAT 2 26 Apr 09:40:35 09:44:40 48° 99° (E) 09:48:43 437.432
CUTE 1.7 + AOD 2 26 Apr 09:43:10 09:47:30 86° 107° (ESE) 09:51:46 437.475
BEESAT 3 26 Apr 09:45:16 09:48:18 20° 35° (NE) 09:51:22 437.485
BEESAT 2 26 Apr 09:47:28 09:50:22 18° 33° (NNE) 09:53:20 435.950
NANOSAT C BR1 26 Apr 09:51:47 09:54:51 20° 64° (ENE) 09:58:02 145.865
DX 1 26 Apr 09:53:42 09:54:49 11° 86° (E) 09:56:11 434.975-435.025
POPSAT HIP 1 26 Apr 09:55:05 09:58:17 22° 65° (ENE) 10:01:36 437.405
TIGRISAT 26 Apr 09:56:00 10:00:17 43° 70° (ENE) 10:04:44 435.000
CUBEBUG 2 26 Apr 09:56:19 10:00:36 32° 94° (E) 10:04:55 437.445
HO-68 26 Apr 09:58:27 10:05:42 90° 291° (WNW) 10:12:53 435.675
UNISAT 6 26 Apr 10:00:28 10:04:51 49° 71° (ENE) 10:09:23 437.425
CINEMA 3 26 Apr 10:00:38 10:05:36 64° 100° (E) 10:10:37 145.822/145.860
BUGSAT 1 26 Apr 10:16:29 10:19:43 24° 66° (ENE) 10:23:01 437.445
UWE-3 26 Apr 10:21:04 10:25:36 46° 97° (E) 10:30:07 435.000/436.395/437.385
POLYITAN 1 26 Apr 10:24:12 10:28:11 42° 70° (ENE) 10:32:14 437.675
DUCHIFAT 1 26 Apr 10:24:31 10:28:26 40° 70° (ENE) 10:32:26 145.980
GOMX 1 26 Apr 10:24:51 10:29:27 35° 292° (WNW) 10:34:13 467.674
Cosmos 2491 26 Apr 10:26:09 10:34:58 74° 265° (W) 10:43:45 435.465 / 435.565
FUNcube-1 26 Apr 10:29:05 10:33:29 43° 97° (E) 10:37:52 145.935
UKube-1 26 Apr 10:33:56 10:37:36 27° 95° (E) 10:41:19 .
COMPASS 1 26 Apr 10:34:08 10:38:07 40° 290° (WNW) 10:42:02 437.405
BRITE-PL 26 Apr 10:41:18 10:44:52 19° 297° (WNW) 10:48:26 437.365/2234.400
QB50P1 26 Apr 10:42:09 10:46:19 64° 73° (ENE) 10:50:32 145.935-145.965
ANTELSAT 26 Apr 10:42:24 10:46:57 67° 259° (WSW) 10:51:38 437.575/2403.000
HUMSAT D 26 Apr 10:45:05 10:48:58 31° 95° (E) 10:52:52 437.325/437.525
DELFI C3 26 Apr 10:47:19 10:51:24 89° 285° (WNW) 10:55:25 145.870
AIST 2 26 Apr 10:51:29 10:54:57 23° 37° (NE) 10:58:24 435.215
Oscar 11 26 Apr 10:52:45 10:57:06 63° 287° (WNW) 11:01:23 145.826/435.025
ZACube-1 26 Apr 10:54:37 10:59:16 79° 103° (ESE) 11:03:52 437.345
DOVE 4 26 Apr 10:58:45 11:02:56 26° 295° (WNW) 11:07:07 437.250
VELOX 1 26 Apr 11:01:18 11:05:03 27° 94° (E) 11:08:51 145.980
SEEDS 26 Apr 11:01:19 11:04:28 20° 296° (WNW) 11:07:30 437.485
PCSat 26 Apr 11:03:01 11:06:34 17° 331° (NNW) 11:10:00 145.827
CUBEBUG 1 26 Apr 11:05:39 11:08:09 15° 89° (E) 11:10:49 437.445
QB50P2 26 Apr 11:08:28 11:12:41 67° 258° (WSW) 11:16:57 145.880/145.840
CANX-2 26 Apr 11:11:41 11:13:51 13° 300° (WNW) 11:15:50 2200.000
AAUSAT CUBESAT 2 26 Apr 11:17:00 11:19:59 19° 296° (WNW) 11:22:52 437.432
AISAT 26 Apr 11:19:09 11:23:22 41° 98° (E) 11:27:37 437.250
CUTE 1.7 + AOD 2 26 Apr 11:21:04 11:22:50 12° 300° (WNW) 11:24:23 437.475
SO-50 26 Apr 11:22:32 11:26:48 37° 118° (ESE) 11:31:15 436.795
BEESAT 3 26 Apr 11:22:41 11:26:48 74° 235° (SW) 11:30:50 437.485
BEESAT 2 26 Apr 11:24:53 11:29:03 83° 234° (SW) 11:33:08 435.950
NANOSAT C BR1 26 Apr 11:26:24 11:30:26 44° 262° (W) 11:34:31 145.865
DX 1 26 Apr 11:27:22 11:31:45 83° 285° (WNW) 11:36:07 434.975-435.025
POPSAT HIP 1 26 Apr 11:29:58 11:33:58 41° 262° (W) 11:37:59 437.405
50 SAT 26 Apr 11:30:54 11:34:56 59° 100° (E) 11:38:54 437.505
CUBEBUG 2 26 Apr 11:32:59 11:37:18 33° 292° (WNW) 11:41:32 437.445
TIGRISAT 26 Apr 11:33:36 11:37:16 23° 269° (W) 11:40:55 435.000
YUBILEINY 26 Apr 11:34:28 11:43:19 75° 282° (WNW) 11:52:10 435.215
AIST 1 26 Apr 11:37:09 11:41:25 66° 79° (E) 11:45:39
UNISAT 6 26 Apr 11:38:30 11:41:58 20° 270° (W) 11:45:23 437.425
CINEMA 3 26 Apr 11:38:46 11:42:23 20° 298° (WNW) 11:45:55 145.822/145.860
HO-68 26 Apr 11:47:15 11:52:38 23° 307° (NW) 11:57:48 435.675
BUGSAT 1 26 Apr 11:51:26 11:55:05 32° 264° (W) 11:58:45 437.445
Cosmos 2504 26 Apr 11:51:47 11:57:07 19° 77° (ENE) 12:02:50 435.465 / 435.565
UWE-3 26 Apr 11:58:06 12:01:54 24° 295° (WNW) 12:05:35 435.000/436.395/437.385
ESTCUBE 1 26 Apr 12:00:18 12:04:45 60° 101° (E) 12:09:11 437.505/2401.250
POLYITAN 1 26 Apr 12:01:06 12:04:20 20° 269° (W) 12:07:29 437.675
DUCHIFAT 1 26 Apr 12:01:14 12:04:28 21° 268° (W) 12:07:39 145.980
FUNcube-1 26 Apr 12:05:52 12:09:36 24° 295° (WNW) 12:13:14 145.935
Oscar 19 26 Apr 12:06:48 12:10:47 24° 62° (ENE) 12:14:54 437.125/150
UKube-1 26 Apr 12:09:53 12:13:48 34° 293° (WNW) 12:17:41 .
QB50P1 26 Apr 12:20:28 12:22:42 14° 272° (W) 12:24:46 145.935-145.965
HUMSAT D 26 Apr 12:20:54 12:24:41 29° 293° (WNW) 12:28:23 437.325/437.525
SPROUT 26 Apr 12:22:43 12:26:24 27° 94° (E) 12:30:07 437.525
DELFI C3 26 Apr 12:25:05 12:25:56 10° 301° (WNW) 12:26:34 145.870
Cosmos 2491 26 Apr 12:25:18 12:30:25 16° 285° (WNW) 12:35:03 435.465 / 435.565
AIST 2 26 Apr 12:29:40 12:33:53 58° 237° (WSW) 12:37:59 435.215
ISS 26 Apr 12:32:17 12:35:29 57° 148° (SSE) 12:38:42 145.825
ZACube-1 26 Apr 12:32:26 12:35:04 15° 300° (WNW) 12:37:33 437.345
VELOX 1 26 Apr 12:37:38 12:41:42 35° 292° (WNW) 12:45:43 145.980
CUBEBUG 1 26 Apr 12:40:39 12:44:58 60° 287° (WNW) 12:49:16 437.445
ITAMSAT 1 26 Apr 12:43:55 12:47:13 18° 58° (ENE) 12:50:39 435.822/435.867
AISAT 26 Apr 12:56:11 12:59:47 24° 295° (WNW) 13:03:19 437.250
SO-50 26 Apr 13:02:54 13:07:22 38° 318° (NW) 13:11:56 436.795
DX 1 26 Apr 13:05:57 13:07:21 11° 303° (WNW) 13:08:32 434.975-435.025
50 SAT 26 Apr 13:06:54 13:09:20 15° 298° (WNW) 13:11:37 437.505
AIST 1 26 Apr 13:16:39 13:18:34 12° 276° (W) 13:20:17
Gurwin Techsat 1B 26 Apr 13:16:42 13:21:07 28° 64° (ENE) 13:25:38 435.225
TISAT 1 26 Apr 13:24:48 13:29:05 89° 280° (W) 13:33:21 437.305
YUBILEINY 26 Apr 13:35:59 13:42:04 19° 307° (NW) 13:47:47 435.215
ESTCUBE 1 26 Apr 13:38:12 13:41:14 18° 298° (WNW) 13:44:09 437.505/2401.250
Cosmos 2504 26 Apr 13:40:29 13:49:21 79° 97° (E) 13:58:06 435.465 / 435.565
Oscar 19 26 Apr 13:44:45 13:49:49 55° 260° (W) 13:54:56 437.125/150
ITUPSAT 1 26 Apr 13:51:42 13:55:50 29° 94° (E) 14:00:01 437.325
HORYU 2 26 Apr 13:53:06 13:54:45 12° 58° (ENE) 13:56:37 437.375
SPROUT 26 Apr 13:58:37 14:02:33 33° 291° (WNW) 14:06:24 437.525
RS-15 26 Apr 13:58:50 14:08:53 47° 112° (ESE) 14:19:17 29.354- 29.394
JAS-2 26 Apr 14:05:52 14:11:27 23° 56° (NE) 14:17:02 435.910
ISS 26 Apr 14:08:48 14:11:56 42° 348° (NNW) 14:15:04 145.825
AO-7 26 Apr 14:13:50 14:20:49 33° 54° (NE) 14:27:58 29.400- 29.500
ITAMSAT 1 26 Apr 14:20:59 14:26:10 78° 255° (WSW) 14:31:24 435.822/435.867
BEESAT 26 Apr 14:21:42 14:26:25 57° 101° (E) 14:31:06 436.000
SWISSCUBE 26 Apr 14:24:20 14:29:05 65° 101° (E) 14:33:48 437.505
PCSat 26 Apr 14:36:00 14:38:27 13° 23° (NNE) 14:40:59 145.827
SO-50 26 Apr 14:46:52 14:49:17 13° 341° (NNW) 14:51:39 436.795
Gurwin Techsat 1B 26 Apr 14:55:48 15:00:55 47° 262° (W) 15:06:03 435.225
STARS 26 Apr 14:57:27 15:00:23 18° 90° (E) 15:03:27 437.465
TISAT 1 26 Apr 15:02:48 15:04:16 11° 301° (WNW) 15:05:32 437.305
HORYU 2 26 Apr 15:26:15 15:30:45 86° 74° (ENE) 15:35:18 437.375
ITUPSAT 1 26 Apr 15:29:26 15:33:49 36° 293° (WNW) 15:38:08 437.325
Cosmos 2504 26 Apr 15:36:19 15:43:48 28° 299° (WNW) 15:50:56 435.465 / 435.565
KKS-1 26 Apr 15:40:15 15:44:45 70° 102° (ESE) 15:49:14 437.445
ISS 26 Apr 15:45:38 15:48:44 37° 8° (N) 15:51:50 145.825
JAS-2 26 Apr 15:47:47 15:55:41 85° 74° (ENE) 16:03:14 435.910
GONETS M04 26 Apr 15:57:54 16:05:56 44° 88° (E) 16:14:10
BEESAT 26 Apr 16:00:23 16:03:54 20° 298° (WNW) 16:07:17 436.000
SWISSCUBE 26 Apr 16:03:15 16:06:30 18° 300° (WNW) 16:09:38 437.505
AO-7 26 Apr 16:04:49 16:13:06 72° 254° (WSW) 16:21:25 29.400- 29.500
ITAMSAT 1 26 Apr 16:05:21 16:06:41 11° 276° (W) 16:07:41 435.822/435.867
RS-15 26 Apr 16:10:13 16:21:02 62° 318° (NW) 16:32:12 29.354- 29.394
MOZHAYETS 4 26 Apr 16:14:55 16:17:05 13° 86° (E) 16:19:28
PCSat 26 Apr 16:18:20 16:23:27 40° 46° (NE) 16:28:33 145.827
DANDE 26 Apr 16:26:53 16:28:38 13° 80° (E) 16:30:47 436.750
SO-50 26 Apr 16:31:25 16:31:59 10° 6° (N) 16:32:35 436.795
STARS 26 Apr 16:32:51 16:37:13 54° 289° (WNW) 16:41:34 437.465
VERMONT LUNAR 26 Apr 17:00:52 17:03:12 18° 163° (SSE) 17:05:35 437.305
HORYU 2 26 Apr 17:06:39 17:08:08 11° 274° (W) 17:09:22 437.375
CUTE-I 26 Apr 17:17:47 17:22:34 35° 66° (ENE) 17:27:24 437.470
KKS-1 26 Apr 17:18:10 17:20:55 16° 300° (WNW) 17:23:31 437.445
CUSAT 1 26 Apr 17:21:16 17:25:04 71° 98° (E) 17:30:17 437.405
ISS 26 Apr 17:22:02 17:25:18 80° 210° (SSW) 17:28:33 145.825
Cubesat XI-IV 26 Apr 17:27:27 17:32:26 43° 68° (ENE) 17:37:28 437.490
JAS-2 26 Apr 17:35:28 17:41:33 23° 273° (W) 17:47:13 435.910
PHONESAT 2.4 26 Apr 17:38:49 17:41:02 16° 159° (SSE) 17:43:17 2401.200-2431.200
MOZHAYETS 4 26 Apr 17:50:20 17:54:57 73° 286° (WNW) 17:59:29
GONETS M04 26 Apr 17:54:21 18:02:48 48° 289° (WNW) 18:11:17
CUBESAT XI-V 26 Apr 17:54:27 17:56:04 12° 85° (E) 17:57:56 437.345
Cosmos 2499 26 Apr 17:59:38 18:07:54 47° 89° (E) 18:15:59 435.465 / 435.565
PCSat 26 Apr 18:01:52 18:06:53 39° 246° (WSW) 18:11:51 145.827
AO-7 26 Apr 18:02:52 18:07:38 15° 277° (W) 18:11:53 29.400- 29.500
DANDE 26 Apr 18:07:27 18:10:59 52° 288° (WNW) 18:15:45 436.750
SO-50 26 Apr 18:10:48 18:14:26 20° 30° (NNE) 18:18:08 436.795
STRAND 1 26 Apr 18:24:15 18:26:04 12° 85° (E) 18:28:10 437.568
RS-15 26 Apr 18:26:26 18:36:10 33° 349° (N) 18:46:13 29.354- 29.394
M-CUBED/EXP-1 PRIME 26 Apr 18:29:01 18:32:00 19° 95° (E) 18:34:56 437.505
VERMONT LUNAR 26 Apr 18:37:13 18:40:07 27° 179° (S) 18:43:02 437.305
BRITE-PL 26 Apr 18:40:47 18:42:38 13° 59° (ENE) 18:44:43 437.365/2234.400
HO-68 26 Apr 18:44:39 18:49:51 23° 53° (NE) 18:55:16 435.675
CUTE-I 26 Apr 18:57:45 19:02:39 36° 264° (W) 19:07:32 437.470
CANX-2 26 Apr 18:58:03 18:58:46 10° 58° (ENE) 18:59:43 2200.000
ISS 26 Apr 18:59:22 19:01:15 14° 224° (SW) 19:03:02 145.825
CUTE 1.7 + AOD 2 26 Apr 19:06:17 19:07:41 12° 59° (ENE) 19:09:18 437.475
CUSAT 1 26 Apr 19:06:26 19:08:58 14° 308° (NW) 19:11:41 437.405
Cubesat XI-IV 26 Apr 19:08:03 19:12:43 30° 266° (W) 19:17:20 437.490
AUBIESAT-1 26 Apr 19:09:47 19:13:50 44° 103° (ESE) 19:17:32 437.475
PHONESAT 2.4 26 Apr 19:15:33 19:18:40 28° 175° (S) 19:21:47 2401.200-2431.200
CUBESAT XI-V 26 Apr 19:29:35 19:34:14 83° 283° (WNW) 19:38:50 437.345
MOZHAYETS 4 26 Apr 19:30:22 19:31:25 11° 303° (WNW) 19:32:14
CINEMA 3 26 Apr 19:32:15 19:33:26 11° 56° (ENE) 19:34:51 145.822/145.860
PRISM 26 Apr 19:35:42 19:39:50 71° 102° (ESE) 19:43:54 437.425
YUBILEINY 26 Apr 19:45:41 19:50:39 17° 50° (NE) 19:56:01 435.215
SO-50 26 Apr 19:50:48 19:55:48 78° 52° (NE) 20:00:44 436.795
Cosmos 2499 26 Apr 19:52:40 20:01:09 47° 289° (WNW) 20:09:17 435.465 / 435.565
COMPASS 1 26 Apr 19:53:24 19:56:41 22° 65° (ENE) 20:00:03 437.405
GOMX 1 26 Apr 19:58:25 20:02:28 46° 71° (ENE) 20:06:47 467.674
GONETS M04 26 Apr 19:59:29 20:02:39 12° 317° (NW) 20:05:18
STRAND 1 26 Apr 20:01:00 20:06:08 87° 100° (E) 20:11:16 437.568
M-CUBED/EXP-1 PRIME 26 Apr 20:03:05 20:07:12 44° 296° (WNW) 20:10:58 437.505
VERMONT LUNAR 26 Apr 20:14:34 20:17:03 19° 196° (SSW) 20:19:31 437.305
Oscar 11 26 Apr 20:15:53 20:18:45 18° 63° (ENE) 20:21:45 145.826/435.025
BRITE-PL 26 Apr 20:16:26 20:20:35 76° 258° (WSW) 20:24:59 437.365/2234.400
SEEDS 26 Apr 20:19:38 20:23:45 48° 72° (ENE) 20:27:54 437.485
ZACube-1 26 Apr 20:20:25 20:22:03 12° 58° (ENE) 20:23:53 437.345
DOVE 4 26 Apr 20:29:28 20:33:43 65° 74° (ENE) 20:38:15 437.250
HO-68 26 Apr 20:29:35 20:36:48 90° 242° (WSW) 20:44:04 435.675
CANX-2 26 Apr 20:29:43 20:34:02 80° 74° (ENE) 20:38:22 2200.000
AAUSAT CUBESAT 2 26 Apr 20:34:09 20:38:13 48° 72° (ENE) 20:42:20 437.432
CUTE 1.7 + AOD 2 26 Apr 20:38:41 20:42:59 89° 85° (E) 20:47:21 437.475
RS-15 26 Apr 20:42:10 20:52:27 38° 22° (NNE) 21:03:15 29.354- 29.394
AUBIESAT-1 26 Apr 20:45:06 20:48:19 21° 303° (WNW) 20:51:17 437.475
DX 1 26 Apr 20:51:45 20:54:18 16° 61° (ENE) 20:57:00 434.975-435.025
PHONESAT 2.4 26 Apr 20:53:28 20:56:23 23° 192° (SSW) 20:59:18 2401.200-2431.200
CUBEBUG 2 26 Apr 20:57:34 21:01:37 37° 69° (ENE) 21:05:51 437.445
CINEMA 3 26 Apr 21:05:28 21:09:51 79° 75° (ENE) 21:14:29 145.822/145.860
CUBESAT XI-V 26 Apr 21:09:13 21:11:00 12° 302° (WNW) 21:12:35 437.345
PRISM 26 Apr 21:12:43 21:14:49 14° 300° (WNW) 21:16:46 437.425
UWE-3 26 Apr 21:21:05 21:25:21 52° 72° (ENE) 21:29:47 435.000/436.395/437.385
O/OREOS (USA 219) 26 Apr 21:22:58 21:26:03 19° 102° (ESE) 21:29:17 437.305
FUNcube-1 26 Apr 21:27:41 21:31:53 48° 71° (ENE) 21:36:14 145.935
COMPASS 1 26 Apr 21:28:09 21:32:10 40° 263° (W) 21:36:12 437.405
ESTCUBE 1 26 Apr 21:29:50 21:31:03 11° 57° (ENE) 21:32:29 437.505/2401.250
UKube-1 26 Apr 21:31:39 21:35:32 34° 68° (ENE) 21:39:28 .
SO-50 26 Apr 21:32:34 21:35:49 17° 249° (WSW) 21:38:53 436.795
Cosmos 2491 26 Apr 21:36:07 21:43:02 29° 82° (E) 21:50:14 435.465 / 435.565
DELFI C3 26 Apr 21:37:28 21:41:33 84° 76° (ENE) 21:45:40 145.870
GOMX 1 26 Apr 21:37:55 21:41:01 19° 271° (W) 21:44:05 467.674
HUMSAT D 26 Apr 21:39:50 21:43:37 33° 68° (ENE) 21:47:31 437.325/437.525
YUBILEINY 26 Apr 21:40:58 21:49:42 66° 76° (ENE) 21:58:22 435.215
STRAND 1 26 Apr 21:41:42 21:44:44 16° 303° (WNW) 21:47:36 437.568
Oscar 11 26 Apr 21:50:16 21:54:34 56° 260° (W) 21:58:53 145.826/435.025
ZACube-1 26 Apr 21:53:21 21:57:44 88° 75° (ENE) 22:02:16 437.345
Cosmos 2499 26 Apr 21:54:19 21:57:03 11° 315° (NW) 21:59:13 435.465 / 435.565
SEEDS 26 Apr 21:56:48 21:59:52 18° 270° (W) 22:02:48 437.485
VELOX 1 26 Apr 22:01:50 22:05:49 35° 68° (ENE) 22:09:51 145.980
CUBEBUG 1 26 Apr 22:04:50 22:07:54 20° 63° (ENE) 22:11:04 437.445
CANX-2 26 Apr 22:09:09 22:10:37 11° 275° (W) 22:11:51 2200.000
DOVE 4 26 Apr 22:09:44 22:12:08 14° 274° (W) 22:14:24 437.250
AAUSAT CUBESAT 2 26 Apr 22:11:13 22:14:10 18° 270° (W) 22:17:00 437.432
50 SAT 26 Apr 22:18:55 22:22:49 51° 72° (ENE) 22:26:46 437.505
AISAT 26 Apr 22:19:50 22:24:07 54° 71° (ENE) 22:28:27 437.250
HO-68 26 Apr 22:20:37 22:25:37 19° 274° (W) 22:30:19 435.675
DX 1 26 Apr 22:25:49 22:30:07 65° 258° (WSW) 22:34:26 434.975-435.025
ANTELSAT 26 Apr 22:32:04 22:35:42 22° 91° (E) 22:39:25 437.575/2403.000
CUBEBUG 2 26 Apr 22:34:43 22:38:27 26° 268° (W) 22:42:13 437.445
CINEMA 3 26 Apr 22:45:58 22:47:49 12° 276° (W) 22:49:30 145.822/145.860
TISAT 1 26 Apr 22:47:02 22:48:44 12° 60° (ENE) 22:50:36 437.305
QB50P2 26 Apr 22:51:51 22:54:33 17° 89° (E) 22:57:23 145.880/145.840
RS-15 26 Apr 22:55:16 23:06:48 82° 51° (NE) 23:18:51 29.354- 29.394
UWE-3 26 Apr 22:59:08 23:02:16 18° 271° (W) 23:05:21 435.000/436.395/437.385
O/OREOS (USA 219) 26 Apr 23:00:37 23:05:07 55° 299° (WNW) 23:09:38 437.305
ESTCUBE 1 26 Apr 23:02:43 23:07:14 79° 75° (ENE) 23:11:45 437.505/2401.250
FUNcube-1 26 Apr 23:05:18 23:08:32 19° 270° (W) 23:11:44 145.935
UKube-1 26 Apr 23:08:05 23:11:45 26° 266° (W) 23:15:23 .
NANOSAT C BR1 26 Apr 23:08:35 23:12:02 23° 93° (E) 23:15:32 145.865
POPSAT HIP 1 26 Apr 23:12:15 23:15:50 26° 94° (E) 23:19:29 437.405
HUMSAT D 26 Apr 23:15:49 23:19:27 26° 267° (W) 23:23:05 437.325/437.525
SPROUT 26 Apr 23:19:53 23:23:36 31° 68° (ENE) 23:27:25 437.525
TIGRISAT 26 Apr 23:21:03 23:25:46 63° 101° (E) 23:30:23 435.000
UNISAT 6 26 Apr 23:25:54 23:30:40 72° 103° (ESE) 23:35:19 437.425
BUGSAT 1 26 Apr 23:30:22 23:33:54 27° 94° (E) 23:37:31 437.445
Cosmos 2491 26 Apr 23:30:30 23:39:13 71° 282° (WNW) 23:48:02 435.465 / 435.565
Cosmos 2504 26 Apr 23:30:36 23:37:50 35° 65° (ENE) 23:44:43 435.465 / 435.565
ZACube-1 26 Apr 23:33:52 23:34:54 11° 276° (W) 23:35:41 437.345
YUBILEINY 26 Apr 23:38:35 23:45:59 31° 277° (W) 23:53:07 435.215
VELOX 1 26 Apr 23:38:43 23:42:27 26° 266° (W) 23:46:10 145.980
CUBEBUG 1 26 Apr 23:39:46 23:43:59 49° 261° (W) 23:48:11 437.445
DUCHIFAT 1 26 Apr 23:41:40 23:45:51 50° 99° (E) 23:50:02 145.980
POLYITAN 1 26 Apr 23:42:11 23:46:25 53° 100° (E) 23:50:39 437.675
50 SAT 26 Apr 23:55:30 23:57:59 15° 271° (W) 00:00:21 437.505
BEESAT 26 Apr 23:56:18 23:58:37 14° 58° (ENE) 00:01:07 436.000
AISAT 26 Apr 23:58:07 00:01:06 17° 270° (W) 00:03:58 437.250
SWISSCUBE 26 Apr 23:58:35 00:01:17 16° 59° (ENE) 00:04:10 437.505
QB50P1 26 Apr 23:59:56 00:04:15 80° 103° (ESE) 00:08:33 145.935-145.965
ANTELSAT 27 Apr 00:08:13 00:12:45 46° 290° (WNW) 00:17:13 437.575/2403.000
AIST 1 27 Apr 00:09:59 00:13:49 33° 91° (E) 00:17:40
